{"data":{"norad_id":68485,"intl_designator":"2026-067BX","name":"CAPELLA-20 (ACADIA-10)","alt_names":[],"object_type":"PAYLOAD","status":"ACTIVE","operator":null,"country":"US","launch_date":"2026-03-30","launch_site_code":"AFWTR","launch_vehicle":null,"mission":null,"orbit_class":"UNKNOWN","rcs_meters":null,"size_class":null,"mass_kg":null,"dimensions":null,"purposes":[],"wikipedia_slug":null,"has_3d_model":false,"image_url":null,"decayed_at":null,"tle_current":{"epoch":"2026-09-17T19:40:20.193024Z","epoch_age_seconds":300539,"freshness":"STALE","line1":"1 68485U 26067BX  26260.81967816  .00004090  00000+0  42249-3 0  9990","line2":"2 68485  97.7635 217.6314 0002920  70.7006 289.4528 14.90689369 25535","mean_motion":14.90689369,"eccentricity":0.000292,"inclination_deg":97.7635,"raan_deg":217.6314,"arg_perigee_deg":70.7006,"mean_anomaly_deg":289.4528,"bstar":0.00042249,"rev_number":2553,"period_min":96.599602167016,"perigee_km":593.74839203758,"apogee_km":597.82116235546,"semimajor_km":6973.9217771965,"source":"CELESTRAK","updated_at":"2026-09-20T09:00:24.250984Z"}}}